Weather History for Columbia / Mount Pleasant, TN

Change the Weather History Date:

Friday, October 24, 2014

  Actual Average (KBNA) Record (KBNA)
Temperature  
Mean Temperature 60 °F 58 °F  
Max Temperature 71 °F 69 °F 85 °F (2000)
Min Temperature 50 °F 46 °F 28 °F (1981)
Degree Days  
Heating Degree Days 4    
Month to date heating degree days  
Since 1 July heating degree days  
Cooling Degree Days 0    
Month to date cooling degree days  
Year to date cooling degree days  
Growing Degree Days 10 (Base 50)    
Moisture  
Dew Point 48 °F    
Average Humidity 63    
Maximum Humidity 100    
Minimum Humidity 31    
Precipitation  
Precipitation 0.00 in 0.10 in 1.63 in (2008)
Month to date precipitation 2.31  
Year to date precipitation 37.97  
Snow  
Snow 0.00 in 0.00 in 0.00 in (2002)
Month to date snowfall 0.0  
Since 1 July snowfall 0.0  
Since 1 September snowfall 0.0  
Snow Depth -    
Sea Level Pressure  
Sea Level Pressure 30.09 in    
Wind  
Wind Speed 1 mph (North)    
Max Wind Speed 7 mph    
Max Gust Speed -    
Visibility 10 miles    
Events      
T = Trace of Precipitation, MM = Missing Value Source: NWS Daily Summary

Daily Weather History Graph

Daily Weather History Graph

Search for Another Location

Airport:

Trip Planner

Search our weather history database for the weather conditions in past years. The results will help you decide how hot, cold, wet, or windy it might be!

Date:

Astronomy

Oct. 24, 2014 Rise Set
Actual Time 7:03 AM CDT 6:02 PM CDT
Civil Twilight 6:37 AM CDT 6:28 PM CDT
Nautical Twilight 6:07 AM CDT 6:57 PM CDT
Astronomical Twilight 5:37 AM CDT 7:27 PM CDT
Moon 7:40 AM CDT (10/24) 6:43 PM CDT (10/24)
Length of Visible Light 11h 51m
Length of Day
10h 59m
New Moon, 1% of the Moon is Illuminated
Oct 24
New Moon
Oct 30
First Quarter
Nov 6
Full
Nov 14
Last Quarter
Nov 22
New

Hourly Weather History & Observations

Time (CDT) Temp. Dew Point Humidity Pressure Visibility Wind Dir Wind Speed Gust Speed Precip Events Conditions
12:15 AM - - N/A% 30.08 in - Calm Calm - N/A   Unknown
12:35 AM - - N/A% 30.09 in - Calm Calm - N/A   Unknown
12:55 AM - - N/A% 30.09 in - Calm Calm - N/A   Unknown
1:35 AM - - N/A% 30.09 in - Calm Calm - N/A   Unknown
1:55 AM - - N/A% 30.09 in - Calm Calm - N/A   Unknown
2:15 AM - - N/A% 30.09 in - East 3.5 mph - N/A   Unknown
2:35 AM - - N/A% 30.09 in - SSW 3.5 mph - N/A   Unknown
2:55 AM - - N/A% 30.09 in - Calm Calm - N/A   Unknown
3:15 AM - - N/A% 30.09 in - Calm Calm - N/A   Unknown
3:35 AM - - N/A% 30.09 in - Calm Calm - N/A   Unknown
3:55 AM - - N/A% 30.09 in - Calm Calm - N/A   Unknown
4:15 AM - - N/A% 30.09 in - Calm Calm - N/A   Unknown
4:35 AM - - N/A% 30.10 in - Calm Calm - N/A   Unknown
4:55 AM - - N/A% 30.10 in - Calm Calm - N/A   Unknown
5:15 AM - - N/A% 30.10 in - Calm Calm - N/A   Mostly Cloudy
5:35 AM - - N/A% 30.11 in - Calm Calm - N/A   Unknown
5:55 AM - - N/A% 30.11 in - Calm Calm - N/A   Unknown
6:15 AM - - N/A% 30.11 in - Calm Calm - N/A   Unknown
6:35 AM - - N/A% 30.11 in - Calm Calm - N/A   Mostly Cloudy
6:55 AM - - N/A% 30.11 in - Calm Calm - N/A   Unknown
7:15 AM - - N/A% 30.12 in - Calm Calm - N/A   Unknown
7:35 AM - - N/A% 30.13 in - Calm Calm - N/A   Unknown
7:55 AM - - N/A% 30.14 in - Calm Calm - N/A   Unknown
8:15 AM - - N/A% 30.13 in - Calm Calm - N/A   Mostly Cloudy
8:35 AM - - N/A% 30.13 in 1.8 mi Calm Calm - N/A   Mostly Cloudy
8:55 AM 50.0 °F 50.0 °F 100% 30.12 in - Calm Calm - N/A   Unknown
9:15 AM 51.8 °F 51.8 °F 100% 30.12 in - Calm Calm - N/A   Unknown
9:35 AM 53.6 °F 53.6 °F 100% 30.12 in - Calm Calm - N/A   Unknown
9:55 AM 55.4 °F 53.6 °F 94% 30.12 in - Calm Calm - N/A   Unknown
10:15 AM 57.2 °F 53.6 °F 88% 30.13 in - Calm Calm - N/A   Unknown
10:35 AM 59.0 °F 53.6 °F 82% 30.12 in - Calm Calm - N/A   Unknown
10:55 AM 62.6 °F 51.8 °F 68% 30.12 in - North 3.5 mph - N/A   Unknown
11:15 AM 62.6 °F 48.2 °F 59% 30.12 in - Variable 4.6 mph - N/A   Unknown
11:35 AM 64.4 °F 48.2 °F 56% 30.11 in - Variable 3.5 mph - N/A   Unknown
11:55 AM 64.4 °F 46.4 °F 52% 30.11 in - NW 3.5 mph - N/A   Unknown
12:15 PM 66.2 °F 46.4 °F 49% 30.11 in - Variable 4.6 mph - N/A   Unknown
12:35 PM 66.2 °F 44.6 °F 46% 30.11 in - NNE 6.9 mph - N/A   Unknown
12:55 PM 68.0 °F 44.6 °F 43% 30.09 in - Variable 5.8 mph - N/A   Unknown
1:15 PM 68.0 °F 42.8 °F 40% 30.08 in - North 4.6 mph - N/A   Unknown
1:35 PM 69.8 °F 37.4 °F 31% 30.08 in - NNE 4.6 mph - N/A   Unknown
1:55 PM 69.8 °F 41.0 °F 35% 30.07 in 10.0 mi NE 3.5 mph - N/A   Clear
2:15 PM 69.8 °F 41.0 °F 35% 30.07 in 10.0 mi Variable 5.8 mph - N/A   Clear
2:35 PM 69.8 °F 42.8 °F 38% 30.06 in 10.0 mi Calm Calm - N/A   Clear
2:55 PM 71.6 °F 42.8 °F 35% 30.06 in 10.0 mi North 3.5 mph - N/A   Clear
3:15 PM 71.6 °F 44.6 °F 38% 30.06 in 10.0 mi NNW 4.6 mph - N/A   Clear
3:35 PM 69.8 °F 42.8 °F 38% 30.05 in 10.0 mi NNW 5.8 mph - N/A   Clear
3:55 PM 69.8 °F 42.8 °F 38% 30.06 in - Calm Calm - N/A   Unknown
4:15 PM 69.8 °F 44.6 °F 40% 30.05 in - Variable 3.5 mph - N/A   Unknown
4:35 PM 69.8 °F 46.4 °F 43% 30.05 in 10.0 mi WNW 3.5 mph - N/A   Clear
4:55 PM 69.8 °F 46.4 °F 43% 30.05 in 10.0 mi Calm Calm - N/A   Clear
5:15 PM 68.0 °F 46.4 °F 46% 30.05 in 10.0 mi Calm Calm - N/A   Clear
5:35 PM 68.0 °F 48.2 °F 49% 30.05 in 10.0 mi Calm Calm - N/A   Clear
5:55 PM 66.2 °F 48.2 °F 52% 30.06 in 10.0 mi Calm Calm - N/A   Clear
6:15 PM 64.4 °F 48.2 °F 56% 30.06 in 10.0 mi Calm Calm - N/A   Clear
6:35 PM 62.6 °F 50.0 °F 63% 30.07 in 10.0 mi Calm Calm - N/A   Clear
6:55 PM 57.2 °F 53.6 °F 88% 30.07 in 10.0 mi Calm Calm - N/A   Clear
7:15 PM 57.2 °F 53.6 °F 88% 30.07 in 10.0 mi Calm Calm - N/A   Clear
7:35 PM 55.4 °F 55.4 °F 100% 30.07 in 10.0 mi Calm Calm - N/A   Clear
7:55 PM 53.6 °F 53.6 °F 100% 30.07 in 10.0 mi Calm Calm - N/A   Clear
8:15 PM 53.6 °F 53.6 °F 100% 30.07 in 10.0 mi Calm Calm - N/A   Clear
8:35 PM 51.8 °F 51.8 °F 100% 30.08 in - SW 3.5 mph - N/A   Unknown
8:55 PM 50.0 °F 50.0 °F 100% 30.08 in 9.0 mi Calm Calm - N/A   Clear
9:15 PM - - N/A% 30.09 in - South 3.5 mph - N/A   Unknown
9:35 PM - - N/A% 30.09 in - Calm Calm - N/A   Unknown
9:55 PM - - N/A% 30.09 in 10.0 mi Calm Calm - N/A   Scattered Clouds
10:15 PM - - N/A% 30.09 in 10.0 mi Calm Calm - N/A   Partly Cloudy
10:35 PM - - N/A% 30.09 in 10.0 mi Calm Calm - N/A   Clear
10:55 PM - - N/A% 30.09 in - Calm Calm - N/A   Unknown
11:15 PM - - N/A% 30.08 in 10.0 mi Calm Calm - N/A   Clear
11:35 PM - - N/A% 30.08 in 10.0 mi Calm Calm - N/A   Clear
11:55 PM - - N/A% 30.08 in 9.0 mi Calm Calm - N/A   Clear